Time,TemperatureF,DewpointF,PressureIn,WindDirection,WindDirectionDegrees,WindSpeedMPH,WindSpeedGustMPH,Humidity,HourlyPrecipIn,Conditions,Clouds,dailyrainin,SoftwareType,DateUTC
2013-03-09 00:00:00,39.1,23.4,30.24,ESE,119,0.0,0.0,53,0.00,,CLR,0.00,VWS V14.01,2013-03-09 05:00:00,
2013-03-09 00:01:00,39.1,23.4,30.23,ESE,119,0.0,0.0,53,0.00,,CLR,0.00,VWS V14.01,2013-03-09 05:01:00,
2013-03-09 00:06:00,38.9,22.3,30.23,ESE,119,0.0,0.0,51,0.00,,CLR,0.00,VWS V14.01,2013-03-09 05:06:00,
2013-03-09 00:11:00,38.9,23.2,30.23,ESE,119,0.0,0.0,53,0.00,,CLR,0.00,VWS V14.01,2013-03-09 05:11:00,
2013-03-09 00:16:00,39.1,23.0,30.23,ESE,119,0.0,0.0,52,0.00,,CLR,0.00,VWS V14.01,2013-03-09 05:16:00,
2013-03-09 00:21:00,39.3,24.1,30.23,ESE,119,0.0,0.0,54,0.00,,CLR,0.00,VWS V14.01,2013-03-09 05:21:00,
2013-03-09 00:26:00,39.6,23.9,30.23,ESE,119,0.0,0.0,53,0.00,,CLR,0.00,VWS V14.01,2013-03-09 05:26:00,
2013-03-09 00:31:00,39.6,23.9,30.23,ESE,119,0.0,0.0,53,0.00,,CLR,0.00,VWS V14.01,2013-03-09 05:31:00,
2013-03-09 00:36:00,39.5,23.8,30.23,ESE,119,0.0,0.0,53,0.00,,CLR,0.00,VWS V14.01,2013-03-09 05:36:00,
2013-03-09 00:41:00,39.2,23.5,30.23,ESE,118,0.0,0.0,53,0.00,,CLR,0.00,VWS V14.01,2013-03-09 05:41:00,
2013-03-09 00:46:00,39.1,23.4,30.23,ESE,118,0.0,1.0,53,0.00,,CLR,0.00,VWS V14.01,2013-03-09 05:46:00,
2013-03-09 00:51:00,39.1,23.4,30.23,ESE,118,0.0,0.0,53,0.00,,CLR,0.00,VWS V14.01,2013-03-09 05:51:00,
2013-03-09 00:56:00,39.1,23.9,30.23,ESE,118,0.0,0.0,54,0.00,,CLR,0.00,VWS V14.01,2013-03-09 05:56:00,
2013-03-09 01:01:00,39.1,23.9,30.23,ESE,118,0.0,0.0,54,0.00,,CLR,0.00,VWS V14.01,2013-03-09 06:01:00,
2013-03-09 01:06:00,39.1,23.9,30.23,ESE,118,0.0,0.0,54,0.00,,CLR,0.00,VWS V14.01,2013-03-09 06:06:00,
2013-03-09 01:11:00,39.1,23.4,30.23,ESE,118,0.0,0.0,53,0.00,,CLR,0.00,VWS V14.01,2013-03-09 06:11:00,
2013-03-09 01:16:00,39.1,23.4,30.24,ESE,118,0.0,0.0,53,0.00,,CLR,0.00,VWS V14.01,2013-03-09 06:16:00,
2013-03-09 01:21:00,39.1,24.3,30.24,ESE,118,0.0,0.0,55,0.00,,CLR,0.00,VWS V14.01,2013-03-09 06:21:00,
2013-03-09 01:26:00,39.1,23.9,30.24,ESE,118,0.0,0.0,54,0.00,,CLR,0.00,VWS V14.01,2013-03-09 06:26:00,
2013-03-09 01:30:00,38.9,23.7,30.24,ESE,118,0.0,0.0,54,0.00,,CLR,0.00,VWS V14.01,2013-03-09 06:30:00,
2013-03-09 01:35:00,38.8,24.0,30.24,ESE,118,0.0,0.0,55,0.00,,CLR,0.00,VWS V14.01,2013-03-09 06:35:00,
2013-03-09 01:40:00,38.5,24.2,30.24,ESE,118,0.0,0.0,56,0.00,,CLR,0.00,VWS V14.01,2013-03-09 06:40:00,
2013-03-09 01:45:00,38.2,23.9,30.24,ESE,118,0.0,0.0,56,0.00,,CLR,0.00,VWS V14.01,2013-03-09 06:45:00,
2013-03-09 01:50:00,38.0,23.7,30.24,ESE,118,0.0,0.0,56,0.00,,CLR,0.00,VWS V14.01,2013-03-09 06:50:00,
2013-03-09 01:55:00,37.9,24.5,30.24,ESE,118,0.0,0.0,58,0.00,,CLR,0.00,VWS V14.01,2013-03-09 06:55:00,
2013-03-09 02:00:00,37.5,23.7,30.24,ESE,118,0.0,0.0,57,0.00,,CLR,0.00,VWS V14.01,2013-03-09 07:00:00,
2013-03-09 02:05:00,37.2,24.2,30.24,ESE,118,0.0,0.0,59,0.00,,CLR,0.00,VWS V14.01,2013-03-09 07:05:00,
2013-03-09 02:10:00,37.2,23.8,30.24,ESE,118,0.0,0.0,58,0.00,,CLR,0.00,VWS V14.01,2013-03-09 07:10:00,
2013-03-09 02:15:00,37.3,25.1,30.24,ESE,118,0.0,0.0,61,0.00,,CLR,0.00,VWS V14.01,2013-03-09 07:15:00,
2013-03-09 02:20:00,37.2,25.0,30.24,ESE,118,0.0,0.0,61,0.00,,CLR,0.00,VWS V14.01,2013-03-09 07:20:00,
2013-03-09 02:25:00,37.0,24.4,30.24,ESE,118,0.0,0.0,60,0.00,,CLR,0.00,VWS V14.01,2013-03-09 07:25:00,
2013-03-09 02:30:00,36.6,23.6,30.23,ESE,118,0.0,0.0,59,0.00,,CLR,0.00,VWS V14.01,2013-03-09 07:30:00,
2013-03-09 02:35:00,36.5,23.5,30.23,ESE,118,0.0,0.0,59,0.00,,CLR,0.00,VWS V14.01,2013-03-09 07:35:00,
2013-03-09 02:40:00,36.5,23.5,30.23,ESE,118,0.0,0.0,59,0.00,,CLR,0.00,VWS V14.01,2013-03-09 07:40:00,
2013-03-09 02:45:00,36.6,23.6,30.23,ESE,118,0.0,0.0,59,0.00,,CLR,0.00,VWS V14.01,2013-03-09 07:45:00,
2013-03-09 02:50:00,36.6,24.0,30.23,ESE,118,0.0,0.0,60,0.00,,CLR,0.00,VWS V14.01,2013-03-09 07:50:00,
2013-03-09 02:55:00,36.5,24.3,30.23,ESE,118,0.0,0.0,61,0.00,,CLR,0.00,VWS V14.01,2013-03-09 07:55:00,
2013-03-09 03:00:00,36.2,24.1,30.22,ESE,118,0.0,0.0,61,0.00,,CLR,0.00,VWS V14.01,2013-03-09 08:00:00,
2013-03-09 03:05:00,35.9,24.2,30.22,ESE,118,0.0,0.0,62,0.00,,CLR,0.00,VWS V14.01,2013-03-09 08:05:00,
2013-03-09 03:10:00,35.6,23.9,30.22,ESE,118,0.0,0.0,62,0.00,,CLR,0.00,VWS V14.01,2013-03-09 08:10:00,
2013-03-09 03:15:00,35.5,23.4,30.21,ESE,118,0.0,0.0,61,0.00,,CLR,0.00,VWS V14.01,2013-03-09 08:15:00,
2013-03-09 03:20:00,35.5,23.4,30.21,ESE,118,0.0,0.0,61,0.00,,CLR,0.00,VWS V14.01,2013-03-09 08:20:00,
2013-03-09 03:25:00,35.5,23.8,30.21,ESE,118,0.0,0.0,62,0.00,,CLR,0.00,VWS V14.01,2013-03-09 08:25:00,
2013-03-09 03:30:00,35.6,23.9,30.21,ESE,118,0.0,0.0,62,0.00,,CLR,0.00,VWS V14.01,2013-03-09 08:30:00,
2013-03-09 03:35:00,35.5,24.9,30.21,ESE,118,0.0,0.0,65,0.00,,CLR,0.00,VWS V14.01,2013-03-09 08:35:00,
2013-03-09 03:40:00,35.2,24.6,30.21,ESE,118,0.0,0.0,65,0.00,,CLR,0.00,VWS V14.01,2013-03-09 08:40:00,
2013-03-09 03:45:00,35.0,24.1,30.22,ESE,118,0.0,0.0,64,0.00,,CLR,0.00,VWS V14.01,2013-03-09 08:45:00,
2013-03-09 03:50:00,34.7,24.1,30.22,ESE,118,0.0,0.0,65,0.00,,CLR,0.00,VWS V14.01,2013-03-09 08:50:00,
2013-03-09 03:55:00,34.6,24.8,30.22,ESE,118,0.0,0.0,67,0.00,,CLR,0.00,VWS V14.01,2013-03-09 08:55:00,
2013-03-09 04:00:00,34.3,24.1,30.22,ESE,118,0.0,0.0,66,0.00,,CLR,0.00,VWS V14.01,2013-03-09 09:00:00,
2013-03-09 04:05:00,34.1,23.6,30.22,ESE,118,0.0,0.0,65,0.00,,CLR,0.00,VWS V14.01,2013-03-09 09:05:00,
2013-03-09 04:10:00,34.0,24.6,30.22,ESE,118,0.0,0.0,68,0.00,,CLR,0.00,VWS V14.01,2013-03-09 09:10:00,
2013-03-09 04:15:00,34.0,24.2,30.22,ESE,118,0.0,0.0,67,0.00,,CLR,0.00,VWS V14.01,2013-03-09 09:15:00,
2013-03-09 04:20:00,33.8,23.7,30.22,ESE,118,0.0,0.0,66,0.00,,CLR,0.00,VWS V14.01,2013-03-09 09:20:00,
2013-03-09 04:25:00,33.7,23.6,30.22,ESE,118,0.0,0.0,66,0.00,,CLR,0.00,VWS V14.01,2013-03-09 09:25:00,
2013-03-09 04:30:00,33.7,23.6,30.22,ESE,118,0.0,0.0,66,0.00,,CLR,0.00,VWS V14.01,2013-03-09 09:30:00,
2013-03-09 04:35:00,33.8,23.3,30.22,ESE,118,0.0,0.0,65,0.00,,CLR,0.00,VWS V14.01,2013-03-09 09:35:00,
2013-03-09 04:40:00,33.7,23.6,30.22,ESE,118,0.0,0.0,66,0.00,,CLR,0.00,VWS V14.01,2013-03-09 09:40:00,
2013-03-09 04:45:00,33.8,23.3,30.22,ESE,118,0.0,0.0,65,0.00,,CLR,0.00,VWS V14.01,2013-03-09 09:45:00,
2013-03-09 04:50:00,34.1,24.3,30.22,ESE,118,0.0,0.0,67,0.00,,CLR,0.00,VWS V14.01,2013-03-09 09:50:00,
2013-03-09 04:55:00,34.0,24.6,30.22,ESE,118,0.0,0.0,68,0.00,,CLR,0.00,VWS V14.01,2013-03-09 09:55:00,
2013-03-09 05:00:00,34.0,24.9,30.23,ESE,118,0.0,0.0,69,0.00,,CLR,0.00,VWS V14.01,2013-03-09 10:00:00,
2013-03-09 05:05:00,33.8,24.0,30.23,ESE,118,0.0,0.0,67,0.00,,CLR,0.00,VWS V14.01,2013-03-09 10:05:00,
2013-03-09 05:10:00,33.8,23.7,30.23,ESE,118,0.0,0.0,66,0.00,,CLR,0.00,VWS V14.01,2013-03-09 10:10:00,
2013-03-09 05:15:00,33.8,23.7,30.23,ESE,118,0.0,0.0,66,0.00,,CLR,0.00,VWS V14.01,2013-03-09 10:15:00,
2013-03-09 05:20:00,33.7,23.9,30.23,ESE,118,0.0,0.0,67,0.00,,CLR,0.00,VWS V14.01,2013-03-09 10:20:00,
2013-03-09 05:25:00,33.8,23.7,30.23,ESE,111,0.0,1.0,66,0.00,,CLR,0.00,VWS V14.01,2013-03-09 10:25:00,
2013-03-09 05:30:00,33.7,23.9,30.23,ESE,111,0.0,0.0,67,0.00,,CLR,0.00,VWS V14.01,2013-03-09 10:30:00,
2013-03-09 05:35:00,33.7,23.9,30.23,ESE,111,0.0,0.0,67,0.00,,CLR,0.00,VWS V14.01,2013-03-09 10:35:00,
2013-03-09 05:40:00,33.8,23.7,30.23,ESE,111,0.0,0.0,66,0.00,,CLR,0.00,VWS V14.01,2013-03-09 10:40:00,
2013-03-09 05:45:00,33.8,24.0,30.24,ESE,111,0.0,0.0,67,0.00,,CLR,0.00,VWS V14.01,2013-03-09 10:45:00,
2013-03-09 05:50:00,33.7,23.6,30.24,ESE,111,0.0,0.0,66,0.00,,CLR,0.00,VWS V14.01,2013-03-09 10:50:00,
2013-03-09 05:55:00,33.5,23.7,30.24,ESE,111,0.0,0.0,67,0.00,,CLR,0.00,VWS V14.01,2013-03-09 10:55:00,
2013-03-09 06:00:00,33.4,23.6,30.24,ESE,111,0.0,0.0,67,0.00,,CLR,0.00,VWS V14.01,2013-03-09 11:00:00,
2013-03-09 06:05:00,33.2,23.8,30.24,ESE,111,0.0,0.0,68,0.00,,CLR,0.00,VWS V14.01,2013-03-09 11:05:00,
2013-03-09 06:10:00,33.1,23.7,30.24,ESE,111,0.0,0.0,68,0.00,,CLR,0.00,VWS V14.01,2013-03-09 11:10:00,
2013-03-09 06:15:00,33.1,23.4,30.25,ESE,111,0.0,0.0,67,0.00,,CLR,0.00,VWS V14.01,2013-03-09 11:15:00,
2013-03-09 06:20:00,33.1,23.4,30.25,ESE,111,0.0,0.0,67,0.00,,CLR,0.00,VWS V14.01,2013-03-09 11:20:00,
2013-03-09 06:25:00,33.1,23.4,30.25,ESE,111,0.0,0.0,67,0.00,,CLR,0.00,VWS V14.01,2013-03-09 11:25:00,
2013-03-09 06:30:00,33.2,23.5,30.26,ESE,111,0.0,0.0,67,0.00,,CLR,0.00,VWS V14.01,2013-03-09 11:30:00,
2013-03-09 06:35:00,33.2,23.8,30.26,ESE,111,0.0,0.0,68,0.00,,CLR,0.00,VWS V14.01,2013-03-09 11:35:00,
2013-03-09 06:40:00,33.1,23.7,30.26,ESE,111,0.0,0.0,68,0.00,,CLR,0.00,VWS V14.01,2013-03-09 11:40:00,
2013-03-09 06:45:00,32.8,23.4,30.26,ESE,111,0.0,0.0,68,0.00,,CLR,0.00,VWS V14.01,2013-03-09 11:45:00,
2013-03-09 06:50:00,32.8,23.8,30.26,ESE,111,0.0,0.0,69,0.00,,CLR,0.00,VWS V14.01,2013-03-09 11:50:00,
2013-03-09 06:55:00,32.7,23.7,30.26,ENE,68,0.0,2.0,69,0.00,,CLR,0.00,VWS V14.01,2013-03-09 11:55:00,
2013-03-09 07:00:00,32.7,23.7,30.27,ENE,68,0.0,0.0,69,0.00,,CLR,0.00,VWS V14.01,2013-03-09 12:00:00,
2013-03-09 07:05:00,32.8,23.8,30.27,ENE,68,0.0,0.0,69,0.00,,CLR,0.00,VWS V14.01,2013-03-09 12:05:00,
2013-03-09 07:10:00,32.9,24.2,30.27,ENE,70,0.0,0.0,70,0.00,,CLR,0.00,VWS V14.01,2013-03-09 12:10:00,
2013-03-09 07:15:00,32.9,24.9,30.28,ENE,70,0.0,0.0,72,0.00,,CLR,0.00,VWS V14.01,2013-03-09 12:15:00,
2013-03-09 07:20:00,32.9,24.5,30.28,ENE,70,0.0,0.0,71,0.00,,CLR,0.00,VWS V14.01,2013-03-09 12:20:00,
2013-03-09 07:25:00,33.1,25.4,30.28,ENE,70,0.0,0.0,73,0.00,,CLR,0.00,VWS V14.01,2013-03-09 12:25:00,
2013-03-09 07:30:00,33.2,24.5,30.29,ENE,70,0.0,0.0,70,0.00,,CLR,0.00,VWS V14.01,2013-03-09 12:30:00,
2013-03-09 07:35:00,33.5,24.4,30.29,ENE,70,0.0,0.0,69,0.00,,CLR,0.00,VWS V14.01,2013-03-09 12:35:00,
2013-03-09 07:40:00,34.0,24.2,30.29,ENE,70,0.0,0.0,67,0.00,,CLR,0.00,VWS V14.01,2013-03-09 12:40:00,
2013-03-09 07:45:00,34.4,24.6,30.28,ENE,78,0.0,1.0,67,0.00,,CLR,0.00,VWS V14.01,2013-03-09 12:45:00,
2013-03-09 07:50:00,35.2,24.6,30.28,ENE,78,0.0,0.0,65,0.00,,CLR,0.00,VWS V14.01,2013-03-09 12:50:00,
2013-03-09 07:55:00,35.9,25.3,30.28,ENE,78,0.0,0.0,65,0.00,,CLR,0.00,VWS V14.01,2013-03-09 12:55:00,
2013-03-09 08:00:00,36.5,26.2,30.29,ENE,78,0.0,1.0,66,0.00,,CLR,0.00,VWS V14.01,2013-03-09 13:00:00,
2013-03-09 08:05:00,37.0,25.6,30.29,ENE,70,0.0,2.0,63,0.00,,CLR,0.00,VWS V14.01,2013-03-09 13:05:00,
2013-03-09 08:10:00,37.8,26.0,30.29,ENE,65,0.0,0.0,62,0.00,,CLR,0.00,VWS V14.01,2013-03-09 13:10:00,
2013-03-09 08:15:00,38.6,26.3,30.30,ENE,58,0.0,3.0,61,0.00,,CLR,0.00,VWS V14.01,2013-03-09 13:15:00,
2013-03-09 08:20:00,39.5,25.5,30.30,ENE,71,0.0,1.0,57,0.00,,CLR,0.00,VWS V14.01,2013-03-09 13:20:00,
2013-03-09 08:25:00,40.3,26.3,30.30,East,92,0.0,4.0,57,0.00,,CLR,0.00,VWS V14.01,2013-03-09 13:25:00,
2013-03-09 08:30:00,40.9,26.4,30.30,ENE,75,0.0,3.0,56,0.00,,CLR,0.00,VWS V14.01,2013-03-09 13:30:00,
2013-03-09 08:35:00,41.6,26.6,30.30,NE,52,1.0,3.0,55,0.00,,CLR,0.00,VWS V14.01,2013-03-09 13:35:00,
2013-03-09 08:40:00,42.2,26.3,30.30,ESE,121,0.0,5.0,53,0.00,,CLR,0.00,VWS V14.01,2013-03-09 13:40:00,
2013-03-09 08:45:00,42.6,27.1,30.31,ESE,103,0.0,2.0,54,0.00,,CLR,0.00,VWS V14.01,2013-03-09 13:45:00,
2013-03-09 08:50:00,43.2,26.8,30.31,ENE,57,3.0,3.0,52,0.00,,CLR,0.00,VWS V14.01,2013-03-09 13:50:00,
2013-03-09 08:55:00,43.5,26.1,30.31,ENE,69,0.0,5.0,50,0.00,,CLR,0.00,VWS V14.01,2013-03-09 13:55:00,
2013-03-09 09:00:00,44.1,27.1,30.31,SE,124,0.0,4.0,51,0.00,,CLR,0.00,VWS V14.01,2013-03-09 14:00:00,
2013-03-09 09:05:00,44.5,26.5,30.31,NNE,26,0.0,4.0,49,0.00,,CLR,0.00,VWS V14.01,2013-03-09 14:05:00,
2013-03-09 09:10:00,44.6,26.6,30.31,East,85,2.0,4.0,49,0.00,,CLR,0.00,VWS V14.01,2013-03-09 14:10:00,
2013-03-09 09:15:00,45.1,28.1,30.31,SE,132,1.0,4.0,51,0.00,,CLR,0.00,VWS V14.01,2013-03-09 14:15:00,
2013-03-09 09:20:00,45.2,26.2,30.31,SE,139,0.0,6.0,47,0.00,,CLR,0.00,VWS V14.01,2013-03-09 14:20:00,
2013-03-09 09:25:00,45.4,27.4,30.31,ESE,113,5.0,6.0,49,0.00,,CLR,0.00,VWS V14.01,2013-03-09 14:25:00,
2013-03-09 09:30:00,45.8,28.2,30.31,SE,128,0.0,7.0,50,0.00,,CLR,0.00,VWS V14.01,2013-03-09 14:30:00,
2013-03-09 09:35:00,46.4,26.8,30.31,ESE,121,6.0,6.0,46,0.00,,CLR,0.00,VWS V14.01,2013-03-09 14:35:00,
2013-03-09 09:40:00,46.7,27.6,30.31,ESE,117,3.0,5.0,47,0.00,,CLR,0.00,VWS V14.01,2013-03-09 14:40:00,
2013-03-09 09:45:00,47.1,26.9,30.31,ESE,121,0.0,5.0,45,0.00,,CLR,0.00,VWS V14.01,2013-03-09 14:45:00,
2013-03-09 09:50:00,47.6,27.9,30.31,SE,136,5.0,7.0,46,0.00,,CLR,0.00,VWS V14.01,2013-03-09 14:50:00,
2013-03-09 09:55:00,48.0,28.2,30.31,ESE,115,1.0,6.0,46,0.00,,CLR,0.00,VWS V14.01,2013-03-09 14:55:00,
2013-03-09 10:00:00,48.5,27.6,30.31,SE,135,1.0,5.0,44,0.00,,CLR,0.00,VWS V14.01,2013-03-09 15:00:00,
2013-03-09 10:05:00,48.0,27.1,30.31,SE,136,6.0,7.0,44,0.00,,CLR,0.00,VWS V14.01,2013-03-09 15:05:00,
2013-03-09 10:10:00,47.7,27.4,30.31,SE,142,4.0,7.0,45,0.00,,CLR,0.00,VWS V14.01,2013-03-09 15:10:00,
2013-03-09 10:15:00,47.9,27.0,30.31,NE,53,0.0,3.0,44,0.00,,CLR,0.00,VWS V14.01,2013-03-09 15:15:00,
2013-03-09 10:20:00,48.2,27.3,30.31,East,101,2.0,4.0,44,0.00,,CLR,0.00,VWS V14.01,2013-03-09 15:20:00,
2013-03-09 10:25:00,48.9,28.0,30.31,East,99,5.0,5.0,44,0.00,,CLR,0.00,VWS V14.01,2013-03-09 15:25:00,
2013-03-09 10:30:00,49.5,28.0,30.31,SE,142,3.0,5.0,43,0.00,,CLR,0.00,VWS V14.01,2013-03-09 15:30:00,
2013-03-09 10:35:00,49.9,27.1,30.31,ESE,107,2.0,4.0,41,0.00,,CLR,0.00,VWS V14.01,2013-03-09 15:35:00,
2013-03-09 10:40:00,50.2,27.4,30.31,ESE,104,0.0,6.0,41,0.00,,CLR,0.00,VWS V14.01,2013-03-09 15:40:00,
2013-03-09 10:45:00,50.5,27.7,30.31,SE,144,1.0,4.0,41,0.00,,CLR,0.00,VWS V14.01,2013-03-09 15:45:00,
2013-03-09 10:50:00,51.0,27.5,30.30,SSE,156,0.0,5.0,40,0.00,,CLR,0.00,VWS V14.01,2013-03-09 15:50:00,
2013-03-09 10:55:00,51.0,26.9,30.30,NW,317,0.0,4.0,39,0.00,,CLR,0.00,VWS V14.01,2013-03-09 15:55:00,
2013-03-09 11:00:00,51.1,27.0,30.30,SSE,157,0.0,4.0,39,0.00,,CLR,0.00,VWS V14.01,2013-03-09 16:00:00,
2013-03-09 11:05:00,51.9,27.1,30.30,ENE,67,3.0,4.0,38,0.00,,CLR,0.00,VWS V14.01,2013-03-09 16:05:00,
2013-03-09 11:10:00,51.9,27.7,30.30,SE,127,2.0,5.0,39,0.00,,CLR,0.00,VWS V14.01,2013-03-09 16:10:00,
2013-03-09 11:15:00,51.9,27.1,30.30,ENE,74,0.0,5.0,38,0.00,,CLR,0.00,VWS V14.01,2013-03-09 16:15:00,
2013-03-09 11:20:00,52.5,27.6,30.29,SSE,154,3.0,4.0,38,0.00,,CLR,0.00,VWS V14.01,2013-03-09 16:20:00,
2013-03-09 11:25:00,52.8,26.6,30.29,ENE,71,2.0,3.0,36,0.00,,CLR,0.00,VWS V14.01,2013-03-09 16:25:00,
2013-03-09 11:30:00,52.8,27.9,30.29,ESE,107,4.0,4.0,38,0.00,,CLR,0.00,VWS V14.01,2013-03-09 16:30:00,
2013-03-09 11:35:00,53.1,27.5,30.29,East,81,0.0,3.0,37,0.00,,CLR,0.00,VWS V14.01,2013-03-09 16:35:00,
2013-03-09 11:40:00,53.5,26.5,30.29,ENE,64,2.0,4.0,35,0.00,,CLR,0.00,VWS V14.01,2013-03-09 16:40:00,
2013-03-09 11:45:00,53.9,27.6,30.29,SSE,160,3.0,4.0,36,0.00,,CLR,0.00,VWS V14.01,2013-03-09 16:45:00,
2013-03-09 11:50:00,53.8,26.8,30.29,SE,144,0.0,4.0,35,0.00,,CLR,0.00,VWS V14.01,2013-03-09 16:50:00,
2013-03-09 11:55:00,53.9,26.9,30.29,SE,134,3.0,5.0,35,0.00,,CLR,0.00,VWS V14.01,2013-03-09 16:55:00,
2013-03-09 12:00:00,53.9,26.9,30.29,SE,139,6.0,6.0,35,0.00,,CLR,0.00,VWS V14.01,2013-03-09 17:00:00,
2013-03-09 12:05:00,54.2,27.2,30.28,SSE,163,2.0,6.0,35,0.00,,CLR,0.00,VWS V14.01,2013-03-09 17:05:00,
2013-03-09 12:10:00,54.2,26.5,30.28,SSW,205,0.0,3.0,34,0.00,,CLR,0.00,VWS V14.01,2013-03-09 17:10:00,
2013-03-09 12:15:00,54.5,26.0,30.28,SE,137,0.0,1.0,33,0.00,,CLR,0.00,VWS V14.01,2013-03-09 17:15:00,
2013-03-09 12:20:00,55.1,26.5,30.27,ENE,66,2.0,4.0,33,0.00,,CLR,0.00,VWS V14.01,2013-03-09 17:20:00,
2013-03-09 12:25:00,55.6,26.2,30.27,NE,40,0.0,1.0,32,0.00,,CLR,0.00,VWS V14.01,2013-03-09 17:25:00,
2013-03-09 12:30:00,55.4,27.5,30.27,SW,216,0.0,3.0,34,0.00,,CLR,0.00,VWS V14.01,2013-03-09 17:30:00,
2013-03-09 12:35:00,55.4,26.8,30.27,SSE,152,1.0,4.0,33,0.00,,CLR,0.00,VWS V14.01,2013-03-09 17:35:00,
2013-03-09 12:40:00,55.3,26.7,30.27,SSE,160,0.0,4.0,33,0.00,,CLR,0.00,VWS V14.01,2013-03-09 17:40:00,
2013-03-09 12:45:00,55.1,25.0,30.27,SSE,149,0.0,4.0,31,0.00,,CLR,0.00,VWS V14.01,2013-03-09 17:45:00,
2013-03-09 12:50:00,55.4,24.5,30.27,SSE,149,0.0,2.0,30,0.00,,CLR,0.00,VWS V14.01,2013-03-09 17:50:00,
2013-03-09 12:55:00,55.9,24.9,30.27,ENE,77,1.0,4.0,30,0.00,,CLR,0.00,VWS V14.01,2013-03-09 17:55:00,
2013-03-09 13:00:00,56.3,26.1,30.27,NNW,346,0.0,4.0,31,0.00,,CLR,0.00,VWS V14.01,2013-03-09 18:00:00,
2013-03-09 13:05:00,56.7,25.6,30.26,NNW,336,0.0,1.0,30,0.00,,CLR,0.00,VWS V14.01,2013-03-09 18:05:00,
2013-03-09 13:10:00,57.0,26.7,30.26,SSW,203,2.0,3.0,31,0.00,,CLR,0.00,VWS V14.01,2013-03-09 18:10:00,
2013-03-09 13:15:00,57.3,27.0,30.26,SSW,193,1.0,4.0,31,0.00,,CLR,0.00,VWS V14.01,2013-03-09 18:15:00,
2013-03-09 13:20:00,57.5,25.5,30.25,SE,136,0.0,5.0,29,0.00,,CLR,0.00,VWS V14.01,2013-03-09 18:20:00,
2013-03-09 13:25:00,57.8,25.8,30.25,SE,132,0.0,5.0,29,0.00,,CLR,0.00,VWS V14.01,2013-03-09 18:25:00,
2013-03-09 13:30:00,58.1,26.0,30.25,SW,217,0.0,2.0,29,0.00,,CLR,0.00,VWS V14.01,2013-03-09 18:30:00,
2013-03-09 13:35:00,58.7,26.5,30.24,SE,126,1.0,2.0,29,0.00,,CLR,0.00,VWS V14.01,2013-03-09 18:35:00,
2013-03-09 13:40:00,58.6,28.1,30.24,SSE,149,1.0,4.0,31,0.00,,CLR,0.00,VWS V14.01,2013-03-09 18:40:00,
2013-03-09 13:45:00,58.3,26.2,30.24,ESE,105,2.0,4.0,29,0.00,,CLR,0.00,VWS V14.01,2013-03-09 18:45:00,
2013-03-09 13:50:00,58.4,27.1,30.23,ENE,75,1.0,4.0,30,0.00,,CLR,0.00,VWS V14.01,2013-03-09 18:50:00,
2013-03-09 13:55:00,58.6,26.5,30.23,SSE,154,2.0,7.0,29,0.00,,CLR,0.00,VWS V14.01,2013-03-09 18:55:00,
2013-03-09 14:00:00,58.9,25.9,30.23,SW,229,0.0,4.0,28,0.00,,CLR,0.00,VWS V14.01,2013-03-09 19:00:00,
2013-03-09 14:05:00,59.5,26.4,30.22,NE,56,0.0,2.0,28,0.00,,CLR,0.00,VWS V14.01,2013-03-09 19:05:00,
2013-03-09 14:10:00,60.2,27.9,30.22,NW,319,4.0,4.0,29,0.00,,CLR,0.00,VWS V14.01,2013-03-09 19:10:00,
2013-03-09 14:15:00,60.2,27.9,30.22,WSW,252,0.0,1.0,29,0.00,,CLR,0.00,VWS V14.01,2013-03-09 19:15:00,
2013-03-09 14:20:00,60.2,27.9,30.21,SSE,159,3.0,3.0,29,0.00,,CLR,0.00,VWS V14.01,2013-03-09 19:20:00,
2013-03-09 14:25:00,60.1,26.9,30.21,SE,144,0.0,2.0,28,0.00,,CLR,0.00,VWS V14.01,2013-03-09 19:25:00,
2013-03-09 14:30:00,60.4,27.2,30.21,SSW,194,0.0,4.0,28,0.00,,CLR,0.00,VWS V14.01,2013-03-09 19:30:00,
2013-03-09 14:35:00,60.9,28.5,30.21,WSW,255,0.0,3.0,29,0.00,,CLR,0.00,VWS V14.01,2013-03-09 19:35:00,
2013-03-09 14:40:00,60.5,27.3,30.21,ESE,103,0.0,6.0,28,0.00,,CLR,0.00,VWS V14.01,2013-03-09 19:40:00,
2013-03-09 14:45:00,60.2,27.0,30.21,ESE,117,0.0,4.0,28,0.00,,CLR,0.00,VWS V14.01,2013-03-09 19:45:00,
2013-03-09 14:50:00,60.5,27.3,30.19,South,171,0.0,3.0,28,0.00,,CLR,0.00,VWS V14.01,2013-03-09 19:50:00,
2013-03-09 14:55:00,60.9,27.6,30.19,ESE,115,0.0,4.0,28,0.00,,CLR,0.00,VWS V14.01,2013-03-09 19:55:00,
2013-03-09 15:00:00,61.2,27.9,30.19,ESE,121,1.0,3.0,28,0.00,,CLR,0.00,VWS V14.01,2013-03-09 20:00:00,
2013-03-09 15:05:00,61.6,28.2,30.19,South,170,1.0,1.0,28,0.00,,CLR,0.00,VWS V14.01,2013-03-09 20:05:00,
2013-03-09 15:10:00,61.3,27.9,30.19,SSE,161,0.0,4.0,28,0.00,,CLR,0.00,VWS V14.01,2013-03-09 20:10:00,
2013-03-09 15:15:00,61.8,28.4,30.19,South,181,0.0,1.0,28,0.00,,CLR,0.00,VWS V14.01,2013-03-09 20:15:00,
2013-03-09 15:20:00,62.3,28.8,30.19,WSW,246,2.0,3.0,28,0.00,,CLR,0.00,VWS V14.01,2013-03-09 20:20:00,
2013-03-09 15:25:00,62.6,28.2,30.19,SSE,152,0.0,2.0,27,0.00,,CLR,0.00,VWS V14.01,2013-03-09 20:25:00,
2013-03-09 15:30:00,62.6,28.2,30.19,SW,231,0.0,4.0,27,0.00,,CLR,0.00,VWS V14.01,2013-03-09 20:30:00,
2013-03-09 15:35:00,62.7,28.3,30.19,SW,228,2.0,4.0,27,0.00,,CLR,0.00,VWS V14.01,2013-03-09 20:35:00,
2013-03-09 15:40:00,62.9,28.4,30.19,SW,229,0.0,1.0,27,0.00,,CLR,0.00,VWS V14.01,2013-03-09 20:40:00,
2013-03-09 15:45:00,63.5,29.0,30.19,SW,236,0.0,1.0,27,0.00,,CLR,0.00,VWS V14.01,2013-03-09 20:45:00,
2013-03-09 15:50:00,63.9,29.3,30.19,NNW,340,0.0,6.0,27,0.00,,CLR,0.00,VWS V14.01,2013-03-09 20:50:00,
2013-03-09 15:55:00,64.0,29.4,30.19,NW,320,1.0,4.0,27,0.00,,CLR,0.00,VWS V14.01,2013-03-09 20:55:00,
2013-03-09 16:00:00,63.9,28.4,30.19,SW,229,0.0,3.0,26,0.00,,CLR,0.00,VWS V14.01,2013-03-09 21:00:00,
2013-03-09 16:05:00,62.7,27.4,30.19,South,181,0.0,3.0,26,0.00,,CLR,0.00,VWS V14.01,2013-03-09 21:05:00,
2013-03-09 16:10:00,62.4,28.0,30.19,SSE,166,0.0,1.0,27,0.00,,CLR,0.00,VWS V14.01,2013-03-09 21:10:00,
2013-03-09 16:15:00,62.4,28.0,30.19,SSE,165,0.0,1.0,27,0.00,,CLR,0.00,VWS V14.01,2013-03-09 21:15:00,
2013-03-09 16:20:00,62.6,27.3,30.19,SSE,165,0.0,1.0,26,0.00,,CLR,0.00,VWS V14.01,2013-03-09 21:20:00,
2013-03-09 16:25:00,62.6,28.2,30.19,SSE,161,0.0,1.0,27,0.00,,CLR,0.00,VWS V14.01,2013-03-09 21:25:00,
2013-03-09 16:30:00,62.7,28.3,30.19,SSE,162,0.0,2.0,27,0.00,,CLR,0.00,VWS V14.01,2013-03-09 21:30:00,
2013-03-09 16:35:00,62.6,28.2,30.18,South,180,1.0,2.0,27,0.00,,CLR,0.00,VWS V14.01,2013-03-09 21:35:00,
2013-03-09 16:40:00,62.3,27.9,30.18,SSW,196,0.0,4.0,27,0.00,,CLR,0.00,VWS V14.01,2013-03-09 21:40:00,
2013-03-09 16:45:00,62.9,27.5,30.18,SSW,196,0.0,1.0,26,0.00,,CLR,0.00,VWS V14.01,2013-03-09 21:45:00,
2013-03-09 16:50:00,63.5,27.1,30.18,West,279,1.0,4.0,25,0.00,,CLR,0.00,VWS V14.01,2013-03-09 21:50:00,
2013-03-09 16:55:00,63.7,28.2,30.18,SSW,211,0.0,1.0,26,0.00,,CLR,0.00,VWS V14.01,2013-03-09 21:55:00,
2013-03-09 17:00:00,63.1,27.7,30.18,South,169,1.0,3.0,26,0.00,,CLR,0.00,VWS V14.01,2013-03-09 22:00:00,
2013-03-09 17:05:00,62.4,28.0,30.17,South,169,0.0,1.0,27,0.00,,CLR,0.00,VWS V14.01,2013-03-09 22:05:00,
2013-03-09 17:10:00,62.0,27.7,30.17,SW,215,2.0,2.0,27,0.00,,CLR,0.00,VWS V14.01,2013-03-09 22:10:00,
2013-03-09 17:15:00,61.6,27.3,30.17,SSW,213,0.0,1.0,27,0.00,,CLR,0.00,VWS V14.01,2013-03-09 22:15:00,
2013-03-09 17:20:00,61.5,28.1,30.18,SSW,213,0.0,0.0,28,0.00,,CLR,0.00,VWS V14.01,2013-03-09 22:20:00,
2013-03-09 17:25:00,61.3,27.1,30.18,SSW,213,0.0,0.0,27,0.00,,CLR,0.00,VWS V14.01,2013-03-09 22:25:00,
2013-03-09 17:30:00,61.5,27.2,30.18,SSW,213,0.0,0.0,27,0.00,,CLR,0.00,VWS V14.01,2013-03-09 22:30:00,
2013-03-09 17:35:00,61.5,29.0,30.18,SSW,213,0.0,0.0,29,0.00,,CLR,0.00,VWS V14.01,2013-03-09 22:35:00,
2013-03-09 17:40:00,61.3,29.6,30.18,SSW,213,0.0,0.0,30,0.00,,CLR,0.00,VWS V14.01,2013-03-09 22:40:00,
2013-03-09 17:45:00,61.0,32.5,30.18,SSW,213,0.0,0.0,34,0.00,,CLR,0.00,VWS V14.01,2013-03-09 22:45:00,
2013-03-09 17:50:00,60.7,28.3,30.18,SSW,213,0.0,0.0,29,0.00,,CLR,0.00,VWS V14.01,2013-03-09 22:50:00,
2013-03-09 17:55:00,60.5,28.9,30.18,SSW,213,0.0,0.0,30,0.00,,CLR,0.00,VWS V14.01,2013-03-09 22:55:00,
2013-03-09 18:00:00,60.4,28.0,30.18,SSW,213,0.0,0.0,29,0.00,,CLR,0.00,VWS V14.01,2013-03-09 23:00:00,
2013-03-09 18:05:00,60.2,31.8,30.18,SSW,213,0.0,0.0,34,0.00,,CLR,0.00,VWS V14.01,2013-03-09 23:05:00,
2013-03-09 18:10:00,60.1,30.2,30.18,SSW,213,0.0,0.0,32,0.00,,CLR,0.00,VWS V14.01,2013-03-09 23:10:00,
2013-03-09 18:15:00,59.6,29.0,30.18,SSW,213,0.0,0.0,31,0.00,,CLR,0.00,VWS V14.01,2013-03-09 23:15:00,
2013-03-09 18:20:00,59.2,29.4,30.18,SSW,213,0.0,0.0,32,0.00,,CLR,0.00,VWS V14.01,2013-03-09 23:20:00,
2013-03-09 18:25:00,58.7,29.7,30.18,SSW,213,0.0,0.0,33,0.00,,CLR,0.00,VWS V14.01,2013-03-09 23:25:00,
2013-03-09 18:30:00,58.1,29.2,30.18,SSW,213,0.0,0.0,33,0.00,,CLR,0.00,VWS V14.01,2013-03-09 23:30:00,
2013-03-09 18:35:00,57.5,29.4,30.19,SSW,213,0.0,0.0,34,0.00,,CLR,0.00,VWS V14.01,2013-03-09 23:35:00,
2013-03-09 18:40:00,56.9,29.5,30.19,SSW,213,0.0,0.0,35,0.00,,CLR,0.00,VWS V14.01,2013-03-09 23:40:00,
2013-03-09 18:45:00,56.5,29.2,30.19,SSW,213,0.0,0.0,35,0.00,,CLR,0.00,VWS V14.01,2013-03-09 23:45:00,
2013-03-09 18:50:00,55.9,28.7,30.19,SSW,213,0.0,0.0,35,0.00,,CLR,0.00,VWS V14.01,2013-03-09 23:50:00,
2013-03-09 18:55:00,55.4,29.6,30.19,SSW,213,0.0,0.0,37,0.00,,CLR,0.00,VWS V14.01,2013-03-09 23:55:00,
2013-03-09 19:00:00,55.1,28.6,30.19,SSW,213,0.0,0.0,36,0.00,,CLR,0.00,VWS V14.01,2013-03-10 00:00:00,
2013-03-09 19:05:00,54.8,32.2,30.19,SSW,213,0.0,0.0,42,0.00,,CLR,0.00,VWS V14.01,2013-03-10 00:05:00,
2013-03-09 19:10:00,54.7,30.9,30.19,SSW,213,0.0,0.0,40,0.00,,CLR,0.00,VWS V14.01,2013-03-10 00:10:00,
2013-03-09 19:15:00,54.5,32.5,30.19,SSW,213,0.0,0.0,43,0.00,,CLR,0.00,VWS V14.01,2013-03-10 00:15:00,
2013-03-09 19:20:00,54.4,31.2,30.19,SSW,213,0.0,0.0,41,0.00,,CLR,0.00,VWS V14.01,2013-03-10 00:20:00,
2013-03-09 19:25:00,54.1,30.9,30.19,SSW,213,0.0,0.0,41,0.00,,CLR,0.00,VWS V14.01,2013-03-10 00:25:00,
2013-03-09 19:30:00,53.9,31.4,30.19,SSW,213,0.0,0.0,42,0.00,,CLR,0.00,VWS V14.01,2013-03-10 00:30:00,
2013-03-09 19:35:00,53.8,31.9,30.20,SSW,213,0.0,0.0,43,0.00,,CLR,0.00,VWS V14.01,2013-03-10 00:35:00,
2013-03-09 19:40:00,53.5,34.3,30.20,WSW,248,0.0,3.0,48,0.00,,CLR,0.00,VWS V14.01,2013-03-10 00:40:00,
2013-03-09 19:45:00,53.1,31.8,30.20,WSW,248,0.0,0.0,44,0.00,,CLR,0.00,VWS V14.01,2013-03-10 00:45:00,
2013-03-09 19:50:00,52.8,30.4,30.20,WSW,248,0.0,0.0,42,0.00,,CLR,0.00,VWS V14.01,2013-03-10 00:50:00,
2013-03-09 19:55:00,52.8,32.1,30.20,WSW,248,0.0,0.0,45,0.00,,CLR,0.00,VWS V14.01,2013-03-10 00:55:00,
2013-03-09 20:00:00,52.5,31.8,30.20,WSW,248,0.0,0.0,45,0.00,,CLR,0.00,VWS V14.01,2013-03-10 01:00:00,
2013-03-09 20:05:00,52.2,30.4,30.21,WSW,248,0.0,0.0,43,0.00,,CLR,0.00,VWS V14.01,2013-03-10 01:05:00,
2013-03-09 20:09:00,52.0,29.6,30.21,WSW,248,0.0,0.0,42,0.00,,CLR,0.00,VWS V14.01,2013-03-10 01:09:00,
2013-03-09 20:14:00,52.0,30.8,30.21,WSW,248,0.0,0.0,44,0.00,,CLR,0.00,VWS V14.01,2013-03-10 01:14:00,
2013-03-09 20:19:00,51.9,30.1,30.20,WSW,248,0.0,0.0,43,0.00,,CLR,0.00,VWS V14.01,2013-03-10 01:19:00,
2013-03-09 20:24:00,51.7,29.9,30.20,WSW,248,0.0,0.0,43,0.00,,CLR,0.00,VWS V14.01,2013-03-10 01:24:00,
2013-03-09 20:29:00,51.6,32.0,30.20,WSW,248,0.0,0.0,47,0.00,,CLR,0.00,VWS V14.01,2013-03-10 01:29:00,
2013-03-09 20:34:00,51.3,32.8,30.20,WSW,248,0.0,0.0,49,0.00,,CLR,0.00,VWS V14.01,2013-03-10 01:34:00,
2013-03-09 20:39:00,50.7,32.8,30.20,WSW,248,0.0,0.0,50,0.00,,CLR,0.00,VWS V14.01,2013-03-10 01:39:00,
2013-03-09 20:44:00,50.4,32.0,30.20,WSW,248,0.0,0.0,49,0.00,,CLR,0.00,VWS V14.01,2013-03-10 01:44:00,
2013-03-09 20:49:00,50.4,29.9,30.21,WSW,248,0.0,0.0,45,0.00,,BKN120,0.00,VWS V14.01,2013-03-10 01:49:00,
2013-03-09 20:54:00,50.4,30.4,30.21,WSW,248,0.0,0.0,46,0.00,,BKN120,0.00,VWS V14.01,2013-03-10 01:54:00,
2013-03-09 20:59:00,50.5,32.6,30.21,WSW,248,0.0,0.0,50,0.00,,BKN120,0.00,VWS V14.01,2013-03-10 01:59:00,
2013-03-09 21:04:00,50.5,31.0,30.21,WSW,248,0.0,0.0,47,0.00,,BKN120,0.00,VWS V14.01,2013-03-10 02:04:00,
2013-03-09 21:09:00,50.4,30.4,30.21,WSW,248,0.0,0.0,46,0.00,,BKN120,0.00,VWS V14.01,2013-03-10 02:09:00,
2013-03-09 21:14:00,50.4,31.0,30.21,WSW,248,0.0,0.0,47,0.00,,BKN120,0.00,VWS V14.01,2013-03-10 02:14:00,
2013-03-09 21:19:00,50.4,31.5,30.21,WSW,248,0.0,0.0,48,0.00,,BKN120,0.00,VWS V14.01,2013-03-10 02:19:00,
2013-03-09 21:24:00,50.1,31.7,30.21,WSW,248,0.0,0.0,49,0.00,,BKN120,0.00,VWS V14.01,2013-03-10 02:24:00,
2013-03-09 21:29:00,49.9,30.0,30.21,WSW,248,0.0,0.0,46,0.00,,BKN120,0.00,VWS V14.01,2013-03-10 02:29:00,
2013-03-09 21:34:00,49.9,30.5,30.21,WSW,248,0.0,0.0,47,0.00,,BKN120,0.00,VWS V14.01,2013-03-10 02:34:00,
2013-03-09 21:39:00,49.8,32.4,30.21,WSW,248,0.0,0.0,51,0.00,,BKN120,0.00,VWS V14.01,2013-03-10 02:39:00,
2013-03-09 21:44:00,49.5,31.1,30.21,WSW,248,0.0,0.0,49,0.00,,BKN120,0.00,VWS V14.01,2013-03-10 02:44:00,
2013-03-09 21:49:00,49.2,30.4,30.20,WSW,248,0.0,0.0,48,0.00,,CLR,0.00,VWS V14.01,2013-03-10 02:49:00,
2013-03-09 21:54:00,49.1,31.3,30.20,WSW,248,0.0,0.0,50,0.00,,CLR,0.00,VWS V14.01,2013-03-10 02:54:00,
2013-03-09 21:59:00,48.8,31.5,30.20,WSW,248,0.0,0.0,51,0.00,,CLR,0.00,VWS V14.01,2013-03-10 02:59:00,
2013-03-09 22:04:00,48.5,31.2,30.21,WSW,248,0.0,0.0,51,0.00,,CLR,0.00,VWS V14.01,2013-03-10 03:04:00,
2013-03-09 22:09:00,48.2,30.9,30.21,WSW,248,0.0,0.0,51,0.00,,CLR,0.00,VWS V14.01,2013-03-10 03:09:00,
2013-03-09 22:14:00,47.9,30.2,30.21,WSW,248,0.0,0.0,50,0.00,,CLR,0.00,VWS V14.01,2013-03-10 03:14:00,
2013-03-09 22:19:00,47.9,30.7,30.21,WSW,248,0.0,0.0,51,0.00,,CLR,0.00,VWS V14.01,2013-03-10 03:19:00,
2013-03-09 22:24:00,47.7,30.5,30.21,WSW,248,0.0,0.0,51,0.00,,CLR,0.00,VWS V14.01,2013-03-10 03:24:00,
2013-03-09 22:29:00,47.6,31.8,30.21,WSW,248,0.0,0.0,54,0.00,,CLR,0.00,VWS V14.01,2013-03-10 03:29:00,
2013-03-09 22:34:00,47.4,30.7,30.21,WSW,248,0.0,0.0,52,0.00,,CLR,0.00,VWS V14.01,2013-03-10 03:34:00,
2013-03-09 22:39:00,47.3,31.5,30.21,WSW,248,0.0,0.0,54,0.00,,CLR,0.00,VWS V14.01,2013-03-10 03:39:00,
2013-03-09 22:44:00,47.1,30.9,30.21,WSW,248,0.0,0.0,53,0.00,,CLR,0.00,VWS V14.01,2013-03-10 03:44:00,
2013-03-09 22:49:00,47.0,30.8,30.20,WSW,248,0.0,0.0,53,0.00,,CLR,0.00,VWS V14.01,2013-03-10 03:49:00,
2013-03-09 22:54:00,46.7,30.5,30.20,WSW,248,0.0,0.0,53,0.00,,CLR,0.00,VWS V14.01,2013-03-10 03:54:00,
2013-03-09 22:59:00,46.5,30.8,30.20,WSW,248,0.0,0.0,54,0.00,,CLR,0.00,VWS V14.01,2013-03-10 03:59:00,
2013-03-09 23:04:00,46.2,30.5,30.20,WSW,248,0.0,0.0,54,0.00,,CLR,0.00,VWS V14.01,2013-03-10 04:04:00,
2013-03-09 23:09:00,46.1,31.3,30.20,WSW,248,0.0,0.0,56,0.00,,CLR,0.00,VWS V14.01,2013-03-10 04:09:00,
2013-03-09 23:14:00,45.8,31.5,30.20,WSW,248,0.0,0.0,57,0.00,,CLR,0.00,VWS V14.01,2013-03-10 04:14:00,
2013-03-09 23:19:00,45.5,31.6,30.20,WSW,248,0.0,0.0,58,0.00,,CLR,0.00,VWS V14.01,2013-03-10 04:19:00,
2013-03-09 23:24:00,45.4,31.5,30.20,WSW,248,0.0,0.0,58,0.00,,CLR,0.00,VWS V14.01,2013-03-10 04:24:00,
2013-03-09 23:29:00,45.2,31.7,30.20,WSW,248,0.0,0.0,59,0.00,,CLR,0.00,VWS V14.01,2013-03-10 04:29:00,
2013-03-09 23:34:00,45.2,31.7,30.20,WSW,248,0.0,0.0,59,0.00,,CLR,0.00,VWS V14.01,2013-03-10 04:34:00,
2013-03-09 23:39:00,45.1,32.5,30.20,WSW,248,0.0,0.0,61,0.00,,CLR,0.00,VWS V14.01,2013-03-10 04:39:00,
2013-03-09 23:44:00,44.8,33.0,30.19,WSW,248,0.0,0.0,63,0.00,,CLR,0.00,VWS V14.01,2013-03-10 04:44:00,
2013-03-09 23:49:00,44.6,33.2,30.19,WSW,248,0.0,0.0,64,0.00,,CLR,0.00,VWS V14.01,2013-03-10 04:49:00,
2013-03-09 23:54:00,44.5,33.5,30.19,WSW,248,0.0,0.0,65,0.00,,CLR,0.00,VWS V14.01,2013-03-10 04:54:00,
2013-03-09 23:59:00,44.5,33.1,30.19,WSW,248,0.0,0.0,64,0.00,,CLR,0.00,VWS V14.01,2013-03-10 04:59:00,